Weather History for KFRI - January, 2014

Change the Weather History Date:

Thursday, January 16, 2014

  Actual Average (KMHK) Record (KMHK)
Temperature  
Mean Temperature 38 °F 28 °F  
Max Temperature 49 °F 41 °F 66 °F (2015)
Min Temperature 27 °F 17 °F -4 °F (1997)
Degree Days  
Heating Degree Days 27 36  
Month to date heating degree days 591  
Since 1 July heating degree days 2732  
Cooling Degree Days 0 0  
Month to date cooling degree days 0  
Year to date cooling degree days 0  
Moisture  
Dew Point 19 °F    
Average Humidity 44    
Maximum Humidity 73    
Minimum Humidity 24    
Precipitation  
Precipitation 0.00 in 0.02 in 0.09 in (1998)
Month to date precipitation 0.20  
Year to date precipitation 0.20  
Sea Level Pressure  
Sea Level Pressure 29.98 in    
Wind  
Wind Speed 11 mph (NW)    
Max Wind Speed 23 mph    
Max Gust Speed 34 mph    
Visibility 10 miles    
Events      
T = Trace of Precipitation, MM = Missing Value Source: NWS Daily Summary

Daily Weather History Graph

Daily Weather History Graph

Search for Another Location

Airport or City:

Trip Planner

Search our weather history database for the weather conditions in past years. The results will help you decide how hot, cold, wet, or windy it might be!

Date:

Astronomy

Jan. 16, 2014 Rise Set
Actual Time 7:44 AM CST 5:29 PM CST
Civil Twilight 7:14 AM CST 5:59 PM CST
Nautical Twilight 6:42 AM CST 6:32 PM CST
Astronomical Twilight 6:10 AM CST 7:04 PM CST
Moon 6:21 PM CST (1/16) 7:39 AM CST (1/16)
Length of Visible Light 10h 44m
Length of Day
9h 45m
Full, 100% of the Moon is Illuminated
Jan 16
Full
Jan 23
Last Quarter
Jan 30
New
Feb 6
First Quarter
Feb 14
Full

Hourly Weather History & Observations

Time (CST) Temp. Windchill Dew Point Humidity Pressure Visibility Wind Dir Wind Speed Gust Speed Precip Events Conditions
12:58 AM 37.9 °F 34.4 °F 27.7 °F 67% 29.85 in 10.0 mi WSW 4.6 mph - N/A   Overcast
1:58 AM 45.9 °F 39.7 °F 28.6 °F 51% 29.86 in 10.0 mi NNW 13.8 mph 23.0 mph N/A   Scattered Clouds
2:58 AM 43.0 °F - 28.8 °F 57% 29.88 in 10.0 mi Variable 1.2 mph - N/A   Mostly Cloudy
3:58 AM 35.8 °F 30.1 °F 28.0 °F 73% 29.89 in 10.0 mi WSW 6.9 mph - N/A   Scattered Clouds
4:58 AM 38.1 °F 32.3 °F 29.3 °F 71% 29.87 in 10.0 mi WSW 8.1 mph - N/A   Scattered Clouds
5:58 AM 39.7 °F 33.2 °F 27.3 °F 61% 29.90 in 10.0 mi West 10.4 mph - N/A   Partly Cloudy
6:58 AM 42.1 °F 35.2 °F 25.9 °F 53% 29.91 in 10.0 mi WNW 12.7 mph 20.7 mph N/A   Clear
7:58 AM 41.9 °F 34.0 °F 23.7 °F 49% 29.94 in 10.0 mi NW 16.1 mph 20.7 mph N/A   Clear
8:58 AM 41.0 °F 35.8 °F 23.9 °F 51% 29.98 in 10.0 mi WNW 8.1 mph - N/A   Clear
9:58 AM 44.6 °F 37.8 °F 21.6 °F 40% 29.99 in 10.0 mi NW 15.0 mph 25.3 mph N/A   Clear
10:58 AM 45.3 °F 37.1 °F 19.6 °F 36% 29.98 in 10.0 mi WNW 21.9 mph 32.2 mph N/A   Clear
11:58 AM 47.8 °F - 18.3 °F 31% 29.96 in 10.0 mi NW 21.9 mph 33.4 mph N/A   Clear
12:58 PM 49.5 °F - 17.1 °F 28% 29.93 in 10.0 mi WNW 15.0 mph 25.3 mph N/A   Partly Cloudy
1:58 PM 48.7 °F - 15.4 °F 27% 29.89 in 10.0 mi NW 13.8 mph 31.1 mph N/A   Partly Cloudy
2:58 PM 48.6 °F - 12.9 °F 24% 29.91 in 10.0 mi NW 20.7 mph 33.4 mph N/A   Scattered Clouds
3:58 PM 45.0 °F 36.9 °F 15.6 °F 31% 29.96 in 10.0 mi NW 20.7 mph 34.5 mph N/A   Partly Cloudy
4:58 PM 43.0 °F 35.4 °F 12.9 °F 30% 29.99 in 10.0 mi NW 16.1 mph 27.6 mph N/A   Clear
5:58 PM 40.6 °F 32.7 °F 12.9 °F 32% 30.01 in 10.0 mi NW 15.0 mph 24.2 mph N/A   Partly Cloudy
6:58 PM 38.7 °F 30.5 °F 16.7 °F 41% 30.06 in 10.0 mi NW 13.8 mph 24.2 mph N/A   Scattered Clouds
7:58 PM 34.9 °F 23.0 °F 14.4 °F 43% 30.11 in 10.0 mi North 23.0 mph 27.6 mph N/A   Scattered Clouds
8:58 PM 31.5 °F 19.8 °F 8.8 °F 39% 30.15 in 10.0 mi NNW 18.4 mph 32.2 mph N/A   Overcast
9:58 PM 29.1 °F 17.1 °F 8.4 °F 42% 30.16 in 10.0 mi NNW 17.3 mph 24.2 mph N/A   Clear
10:58 PM 27.7 °F 19.6 °F 9.0 °F 45% 30.17 in 10.0 mi NNW 8.1 mph - N/A   Clear
11:58 PM 27.5 °F 19.3 °F 7.7 °F 43% 30.17 in 10.0 mi NW 8.1 mph 25.3 mph N/A   Clear